Location: Knowlton
(51.2333°N, 1.2667°E)
Time: 04:41:28
(UTC+00:00)

SPOT 1/Viking Rocket - Pass Details

Date: 18 April 2021
Orbit: 777 x 794 km, 98.4° (Epoch: 06 May)

Event Time Altitude Azimuth Distance (km) Brightness Sun altitude
Exits shadow 19:58:13 12° 128° (SE) 2,224 5.2 -9.6°
Maximum altitude 20:02:36 38° 64° (ENE) 1,206 4.3 -10.1°
Drops below altitude 10° 20:07:24 10° 358° (N) 2,374 6.6 -10.8°
Sets 20:09:52 0° 351° (N) 3,306 7.5 -11.1°
